Regional Weather Roundup
Issued by NWS

Home | Current Version | Previous Version | Text Only | Print | Product List | Glossary Off
Versions: 1 2 3 4 5 6 7 8 9 10 11 12 13 14 15 16 17 18 19 20 21 22 23 24 25 26 27 28 29 30 31 32 33 34 35 36 37 38 39 40 41 42 43 44 45 46 47 48 49 50

000
ASUS45 KBOU 230807
RWRCO

WEATHER ROUNDUP FOR COLORADO
NATIONAL WEATHER SERVICE DENVER/BOULDER CO
200 AM MDT SUN JUL 23 2017

NOTE: "FAIR" INDICATES FEW OR NO CLOUDS BELOW 12000 FEET WITH NO
SIGNIFICANT WEATHER AND/OR OBSTRUCTIONS TO VISIBILITY.

COZ001>005-013-030-031-230900-
...NORTHWEST COLORADO...

CITY           SKY/WX    TMP DP  RH WIND       PRES   REMARKS
CRAIG          FAIR      51  45  79 CALM      30.25S
HAYDEN         FAIR      57  34  41 E9        30.28S
MEEKER         FAIR      57  40  52 NE6       30.27S
RABBIT EARS PA FAIR      55  32  41 E6        30.59S
STEAMBOAT SPGS FAIR      52  39  61 CALM      30.31F
WALDEN         FAIR      43  34  70 SE9       30.43S
$$

COZ006>008-011-230900-
...WEST CENTRAL VALLEYS...

CITY           SKY/WX    TMP DP  RH WIND       PRES   REMARKS
GRAND JUNCTION FAIR      74  51  44 E15       30.12S
MONTROSE       FAIR      68  46  45 SE3       30.25R
EAGLE          FAIR      57  46  66 CALM      30.33R
RIFLE          FAIR      65  42  43 CALM      30.20R
DELTA          FAIR      70  50  49 NE5       30.19F
NUCLA          NOT AVBL
$$

COZ017>023-064>068-230900-
...SOUTHWEST COLORADO...

CITY           SKY/WX    TMP DP  RH WIND       PRES   REMARKS
DURANGO        FAIR      59  53  80 N6        30.28R
CORTEZ         FAIR      62  55  77 E5        30.22S
PAGOSA SPRINGS CLOUDY    62  48  60 CALM      30.36S
TELLURIDE      FAIR      55  44  66 SE6       30.48S
WOLF CREEK PAS CLOUDY    46  36  66 E9        30.70F
$$

COZ009-010-012-014-032>034-037-058>063-230900-
...CENTRAL COLORADO...

CITY           SKY/WX    TMP DP  RH WIND       PRES   REMARKS
ASPEN          FAIR      58  45  62 SW7       30.37S
BUENA VISTA    FAIR      55  48  78 N5        30.42F
COPPER MTN     FAIR      54  36  50 SW5       30.71F
BERTHOUD PASS  FAIR      45  32  61 SE8       30.74F
COTTONWOOD PAS FAIR      57  41  54 W5        30.54F
GUNNISON       FAIR      55  48  77 VRB3      30.42F
KREMMLING      FAIR      55  45  67 CALM      30.39S
LEADVILLE      FAIR      44  42  93 NE5       30.55F
MONARCH PASS   FAIR      48  36  61 E7        30.79F
SALIDA         FAIR      57  51  81 W3        30.48S
SUNLIGHT       FAIR      52  28  40 NE6       30.63S
WILKERSON PASS FAIR      52  37  58 CALM      30.68F
$$

COZ069>075-230900-
...SAN LUIS VALLEY/SANGRE DE CRISTO MOUNTAINS...

CITY           SKY/WX    TMP DP  RH WIND       PRES   REMARKS
ALAMOSA        FAIR      56  53  90 N6        30.37F
DEL NORTE      FAIR      57  47  71 CALM      30.40F
LA VETA PASS   NOT AVBL
SAGUACHE         N/A    N/A N/A N/A MISG        N/A
$$

COZ035-036-038>040-230900-
...NORTHERN COLORADO FRONT RANGE...

CITY           SKY/WX    TMP DP  RH WIND       PRES   REMARKS
DENVER INTL AP FAIR      66  54  65 S10       30.19S
DMNS CITY PARK   N/A     69  53  55 N7        30.20R
AURORA         PTCLDY    67  53  60 SW5       30.22R
FRONT RANGE AP FAIR      70  55  60 SE9       30.21S
ERIE MUNI ARPT FAIR      62  55  78 CALM      30.19R
BOULDER MUN AP FAIR      70  50  49 CALM      30.20S
CENTENNIAL     MOCLDY    67  52  58 SE7       30.23R
BROOMFIELD     FAIR      68  50  52 N10       30.22R
FORT COLLINS   FAIR      65  53  65 N8        30.18F
LONGMONT       FAIR      69  52  54 CALM      30.20S
$$

COZ041-046-047-076>085-087-088-230900-
...PIKES PEAK/PALMER DIVIDE AND SOUTHERN FOOTHILLS...

CITY           SKY/WX    TMP DP  RH WIND       PRES   REMARKS
COLO. SPRINGS  CLOUDY    65  59  81 W3        30.28S
A. F. ACADEMY  FAIR      61  52  71 CALM      30.28F
SCHRIEVER AFB  MOCLDY    63  53  71 NE13      30.28S
CHEYENNE MTN   MOCLDY    65  49  55 SE6       30.28S
ELLICOTT       FAIR     N/A N/A N/A SE9       30.25F
FALCON           N/A     61  54  75 NW6       30.33S
FORT CARSON    FAIR      65  56  70 CALM      30.25R
LIMON          FAIR      59  57  93 CALM      30.22F
MONUMENT HILL  FAIR      57  54  88 S8        30.33F
CANON CITY     CLEAR     66  55  68 W13       30.21S
WALSENBURG     NOT AVBL
TRINIDAD       FAIR      63  54  72 S3        30.25S
$$

COZ042>045-048>051-090-091-230900-
...NORTHEAST COLORADO...

CITY           SKY/WX    TMP DP  RH WIND       PRES   REMARKS
GREELEY ARPT   FAIR      63  56  78 N6        30.16F
AKRON          FAIR      66  48  52 S8        30.17F
BURLINGTON     FAIR      60  56  86 W6        30.15S
WRAY           NOT AVBL
YUMA           FAIR      59  46  63 SW6       30.13F
STERLING       FAIR      63  59  88 CALM      30.13F
HOLYOKE        FAIR      63  54  72 W6        30.12F
FORT MORGAN    FAIR      62  52  69 CALM      30.17F
$$

COZ086-089-092>099-230900-
...SOUTHEAST COLORADO...

CITY           SKY/WX    TMP DP  RH WIND       PRES   REMARKS
PUEBLO         FAIR      69  55  60 NW5       30.15F
LA JUNTA       FAIR      68  55  63 SE6       30.14S
LAMAR          FAIR      64  54  69 E3        30.10S
SPRINGFIELD      N/A     63  58  83 W6        30.14S
$$



USA.gov is the U.S. government's official web portal to all federal, state and local government web resources and services.